This is the latest recevied weather packets stored in our database for station/object DM0MR. If no packets are shown the sender has not sent any weather packets the latest 1 day(s).
| Time | Temp. | Humidity | Pressure | Rain* | Wind** | Luminosity | Snow |
|---|---|---|---|---|---|---|---|
| 1777950699 | 12.78° C | 97% | 1000.6 hPa | 0 mm | 0 m/s | - | - |
| 1777949801 | 12.78° C | 97% | 1000.4 hPa | 0 mm | 0 m/s | - | - |
| 1777947100 | 12.78° C | 99% | 1000.9 hPa | 0.25 mm | 0 m/s | - | - |
| 1777944399 | 13.33° C | 98% | 1001.2 hPa | 0 mm | 0 m/s | - | - |
| 1777943501 | 12.78° C | 98% | 1001.3 hPa | 0 mm | 0 m/s | - | - |
| 1777942599 | 13.33° C | 97% | 1001.5 hPa | 0 mm | 0 m/s | - | - |
| 1777940799 | 13.33° C | 97% | 1001.5 hPa | 0 mm | 0 m/s | - | - |
| 1777939902 | 13.33° C | 97% | 1001.8 hPa | 0 mm | 0 m/s | - | - |
| 1777938998 | 13.33° C | 96% | 1001.9 hPa | 0 mm | 0 m/s | - | - |
| 1777937197 | 13.89° C | 95% | 1001.9 hPa | 0 mm | 0 m/s | - | - |
| 1777936299 | 13.89° C | 94% | 1002 hPa | 0 mm | 0 m/s | - | - |
| 1777935399 | 13.89° C | 91% | 1002.1 hPa | 0 mm | 0 m/s | - | - |
| 1777933599 | 14.44° C | 90% | 1002.4 hPa | 0 mm | 0 m/s | - | - |
| 1777932698 | 15° C | 90% | 1002.1 hPa | 0 mm | 0 m/s | - | - |
| 1777931799 | 15° C | 90% | 1002.1 hPa | 0 mm | 0.89 m/s, 181° | - | - |
| 1777930899 | 14.44° C | 91% | 1002.4 hPa | 0 mm | 0 m/s | - | - |
| 1777929100 | 14.44° C | 93% | 1002.6 hPa | 0 mm | 0 m/s | - | - |
| 1777928199 | 14.44° C | 93% | 1002.8 hPa | 0 mm | 0 m/s | - | - |
| 1777927297 | 15° C | 92% | 1002.9 hPa | 0 mm | 0 m/s | - | - |
| 1777926399 | 15° C | 93% | 1002.6 hPa | 0.25 mm | 0 m/s | - | - |
| 1777925498 | 15° C | 93% | 1002.5 hPa | 0.51 mm | 0 m/s | - | - |
| 1777924599 | 15.56° C | 92% | 1002.2 hPa | 0.51 mm | 0 m/s | - | - |
| 1777923698 | 15.56° C | 91% | 1002.4 hPa | 0.51 mm | 0.45 m/s, 184° | - | - |
| 1777922797 | 15.56° C | 89% | 1002.5 hPa | 0.25 mm | 0.45 m/s, 171° | - | - |
* Rain latest hour (hover to see other rain measurements)
** Current wind speed in m/s (hover to see current wind gust speed)